Location: Newark
(19.2833°N, 166.6000°W)
Time: 00:48:57
(UTC+00:00)

Hubble Space Telescope - Visible Passes

Search period start: 27 January 2020 00:00
Search period end: 06 February 2020 00:00
Orbit: 536 x 540 km, 28.5° (Epoch: 25 January)

Date Brightness Start Highest point End Pass type
(mag) Time Alt. Az. Time Alt. Az. Time Alt. Az.
27 Jan 3.0 15:34:27 21° SE 15:34:27 21° SE 15:37:16 10° E visible
27 Jan 0.7 17:11:01 10° WSW 17:15:08 83° NNW 17:19:16 10° ENE visible
28 Jan 3.2 15:25:11 21° ESE 15:25:11 21° ESE 15:27:02 10° E visible
28 Jan 0.8 17:00:34 11° WSW 17:04:32 64° NNW 17:08:38 10° ENE visible
29 Jan 3.7 15:15:46 15° E 15:15:46 15° E 15:16:39 10° E visible
29 Jan 1.0 16:51:07 18° W 16:53:58 50° NNW 16:57:58 10° ENE visible
30 Jan 4.1 15:06:11 10° ENE 15:06:11 10° ENE 15:06:11 10° ENE visible
30 Jan 1.3 16:41:32 25° WNW 16:43:25 41° NNW 16:47:19 10° NE visible
31 Jan 1.6 16:31:50 29° NW 16:32:52 34° NNW 16:36:39 10° NE visible
01 Feb 1.8 16:22:01 29° NNW 16:22:20 30° NNW 16:25:59 10° NE visible
02 Feb 2.1 16:12:08 26° N 16:12:08 26° N 16:15:20 10° NE visible
03 Feb 2.5 16:02:12 23° NNE 16:02:12 23° NNE 16:04:43 10° NE visible
04 Feb 2.8 15:52:13 19° NNE 15:52:13 19° NNE 15:54:09 10° NE visible
05 Feb 3.1 15:42:12 17° NNE 15:42:12 17° NNE 15:43:36 10° NE visible
